Погода в Порт-Жантиле

Габон     0°41′37″N   8°44′41″E
темп.,
°C
ветер,
м/с
пор.,
м/с
влажн.,
%
обл.,
%
осадки,
мм/ч
давл.,
гПа
погр.,
м
27 ноября, сб
сб2701:00+27ююз458380 1.8 1011281
04:00+26ююз558297 3.0 1010288
07:00+27ю4479100 5.7 1011378
10:00+27ю447791 0.1 1012493
13:00+27ююз447821 0.1 1010517
16:00+27ююз667957 0.3 1008522
19:00+27ю7982100 4.3 1010519
22:00+25юв7990100 5.0 1012466
28 ноября, вс
вс2801:00+24ссв0192100 17.0 1011149
04:00+25з3388100 1.0 1010338
07:00+25зюз338499 1.2 1011331
10:00+26ю228097 0.0 1012387
13:00+26юз33806 0.0 1010419
16:00+27юз557824 0.0 1009627
19:00+27юз668097 0.1 1010684
22:00+27юз558358 0.6 1012518
29 ноября, пн
пн2901:00+27юз558280 1.6 1011571
04:00+26юз5582100 0.5 1010589
07:00+26юз348156 1.0 1011431
10:00+27ю448079 0.3 1012502
13:00+27ююз44775 0.9 1010446
16:00+27ююз66785 0.1 1008600
19:00+27ююз777917 0.1 1010838
22:00+27ю778296 0.2 1012692
30 ноября, вт
вт3001:00+27ююз6681100 0.4 1011665
04:00+27ю5581100 0.0 1009620
07:00+27ююв448258 0.1 1011502
10:00+27ююв458016 0.3 1012659
13:00+26ююз558337 2.0 1010400
16:00+27ююз567932 2.0 1009487
19:00+27ююз457743 2.5 1010573
22:00+27юз4579100 0.0 1011593
1 декабря, ср
ср101:00+27юз447999 0.0 1010542
04:00+27ююз3380100 0.1 1009568
07:00+27ююз3482100 0.1 1010473
10:00+26юв2284100 2.6 101179
13:00+27юз2279100 4.4 1009339
16:00+27юз55775 0.0 1007512
19:00+27ююз557929 0.0 1009627
22:00+27ююз4483100 4.3 1011204